Back to catalog

FENGYUN 1C DEB

AliveLEO
NORAD 31568·DEBRIS·🇨🇳 China

Launched May 10, 1999 from Taiyuan Satellite Launch Center

Loading…

Next Passes (next 24 hours)

TLE

FreshSource: Space-Track

Epoch: Sep 14, 2026, 05:05 UTC

1 31568U 99025BZK 26257.21245871  .00001834  00000-0  10981-2 0  9997
2 31568 102.0445 233.4383 0120195 155.6545 205.0353 14.05491909984478

Track FENGYUN 1C DEB in real time with AllMySat

Download on the App Store